Погода в Ворнянах

Беларусь     54°43′40″N   26°00′32″E
В апреле 2022 года жителям России запретили посещать сайт meteo.paraplan.net по решению Генеральной прокуратуры. Аудитория сайта уменьшилась в 10 раз. Владельцы сайта не видят смысла в поддержке погодного сервера в таких условиях. Сайт будет закрыт в октябре.
темп.,
°C
ветер,
м/с
пор.,
м/с
влажн.,
%
обл.,
%
осадки,
мм/ч
давл.,
гПа
погр.,
м
3 октября, пн
пн300:00+6с2591100 0.0 1005130
03:00+6ссз3986100 0.0 1003313
06:00+6ссз41084100 0.0 1002466
09:00+6ссз61286100 0.2 1001928
12:00+7сз81579100 0.5 9991176
15:00+5ссз91793100 4.6 9991220
18:00+5ссз91895100 5.3 9991259
21:00+5ссз91795100 10.6 9991242
4 октября, вт
вт400:00+5сз81695100 5.9 9991244
03:00+6ссз71494100 9.4 9991178
06:00+5сз71295100 1.3 1000952
09:00+6сз61193100 2.3 1002982
12:00+6ссз61392100 1.3 10041176
15:00+6сз41094100 3.0 1007766
18:00+8сз51386100 1.1 10081293
21:00+8сз7158257 1.2 1011809
5 октября, ср
ср500:00+7зсз5148975 0.0 1013542
03:00+7зсз5119493 0.0 1015430
06:00+5з499869 0.0 1017233
09:00+7зюз3893100 0.0 1017261
12:00+10юз4988100 0.1 1017416
15:00+13зюз51180100 0.1 1017776
18:00+12зюз41082100 0.0 1017421
21:00+12юз51283100 0.0 1017445
6 октября, чт
чт600:00+12юз4108386 0.0 1017356
03:00+10юз499078 0.0 1016193
06:00+8юз49925 0.0 1016194
09:00+10юз412865 0.0 1016335
12:00+15з613713 0.0 1017779
15:00+16з713640 0.0 10181579
18:00+13з713670 0.0 1021954
21:00+11з614800 0.0 1023769
7 октября, пт
пт700:00+9з6149062 0.0 1024646
03:00+11з71072100 0.0 10241027
06:00+11з61177100 0.0 1025800
09:00+10зюз5117997 0.0 1025614
12:00+13з696844 0.0 10251095
15:00+15зюз575910 0.0 10241297
18:00+13юз36735 0.0 1023143
21:00+9ююз37835 0.0 1023119